Regional Weather Roundup
Issued by NWS

Current Version | Previous Version | Text Only | Print | Product List | Glossary On
Versions: 1 2 3 4 5 6 7 8 9 10 11 12 13 14 15 16 17 18 19 20 21 22 23 24 25 26 27 28 29 30 31 32 33 34 35 36 37 38 39 40 41 42 43 44 45 46 47 48 49 50
000
ASUS43 KTOP 291859
RWRKS

WEATHER ROUNDUP FOR KANSAS
NATIONAL WEATHER SERVICE GOODLAND KS
200 PM CDT THU SEP 29 2016

NOTE:  "FAIR" INDICATES FEW OR NO CLOUDS BELOW 12,000 FEET WITH NO
SIGNIFICANT WEATHER AND/OR OBSTRUCTIONS TO VISIBILITY.

KSZ001>006-013>018-027>032-041>047-292000-
NORTHWEST KANSAS

CITY           SKY/WX    TMP DP  RH WIND       PRES   REMARKS
GOODLAND       SUNNY     72  42  34 S16G26    30.37F
HAYS           SUNNY     66  41  39 NE6       30.40F
HILL CITY      SUNNY     68  45  43 VRB6      30.40F
RUSSELL        SUNNY     66  47  50 E6        30.39F
$$

KSZ061>065-074>080-084>089-292000-
SOUTHWEST KANSAS

CITY           SKY/WX    TMP DP  RH WIND       PRES   REMARKS
DODGE CITY     SUNNY     72  37  28 NE7       30.39F
ELKHART          N/A     74  45  35 S14         N/A
GARDEN CITY    SUNNY     70  40  33 S9G17     30.38F
GREAT BEND     SUNNY     66  45  45 E7        30.39F
LIBERAL        SUNNY     72  43  35 E7        30.40F
$$

KSZ066>073-081>083-090>101-292000-
SOUTHEAST KANSAS

CITY           SKY/WX    TMP DP  RH WIND       PRES   REMARKS
CHANUTE        SUNNY     71  50  47 N8        30.34F
COFFEYVILLE    MOSUNNY   71  50  47 N14       30.33F
HUTCHINSON     SUNNY     68  47  46 N9        30.39F
MEDICINE LODGE   N/A     68  48  48 NE7       30.38F
NEWTON           N/A     65  49  56 N9        30.39F
PARSONS        SUNNY     71  49  45 N12       30.34F
WICHITA INTL   MOSUNNY   69  50  50 N9        30.37F
WICHITA JABRA  PTSUNNY   67  50  54 N12G18    30.38F
WICHITA MCCONL MOSUNNY   68  50  52 N12       30.38F
WINFIELD       MOSUNNY   70  50  49 MISG      30.37F
$$

KSZ007>012-019>026-033>040-048>060-102>105-292000-
NORTHEAST KANSAS

CITY           SKY/WX    TMP DP  RH WIND       PRES   REMARKS
CONCORDIA      SUNNY     66  47  50 N6        30.40F
EMPORIA        SUNNY     69  48  47 N9G18     30.36F
LAWRENCE       SUNNY     71  51  49 N7        30.35F
MANHATTAN      MOSUNNY   68  49  50 E5        30.38F
OLATHE IND     SUNNY     68  50  52 N13       30.35F
OLATHE EXE     SUNNY     68  47  46 N10       30.34F
SALINA         MOSUNNY   69  49  48 N6        30.40F
TOPEKA BILLARD MOSUNNY   70  51  51 N10       30.36F
TOPEKA FORBES  MOSUNNY   70  50  49 N12       30.36F
$$




USA.gov is the U.S. government's official web portal to all federal, state and local government web resources and services.